CDT,Max TemperatureF,Mean TemperatureF,Min TemperatureF,Max Dew PointF,MeanDew PointF,Min DewpointF,Max Humidity, Mean Humidity, Min Humidity, Max Sea Level PressureIn, Mean Sea Level PressureIn, Min Sea Level PressureIn, Max VisibilityMiles, Mean VisibilityMiles, Min VisibilityMiles, Max Wind SpeedMPH, Mean Wind SpeedMPH, Max Gust SpeedMPH,PrecipitationIn, CloudCover, Events, WindDirDegrees
2013-6-1,66,62,57,56,51,47,75,68,63,30.01,29.82,29.68,10,10,10,20,12,26,0.00,5,Rain,298
2013-6-2,68,60,53,49,46,44,83,67,44,30.11,30.06,30.02,10,10,10,14,8,18,0.00,6,,351
2013-6-3,75,62,48,54,50,45,93,64,44,30.06,29.96,29.84,10,10,10,18,7,26,0.00,0,,144
2013-6-4,78,70,62,64,60,54,78,72,64,29.95,29.89,29.85,10,10,10,23,11,29,0.00,5,,150
2013-6-5,73,66,60,63,59,53,96,82,55,30.02,29.97,29.92,10,8,2,15,4,21,0.22,7,Rain-Thunderstorm,352
2013-6-6,75,62,52,55,51,48,86,65,48,29.98,29.96,29.93,10,10,10,12,6,18,0.00,3,,325
2013-6-7,75,63,51,54,50,48,93,64,42,30.02,29.97,29.90,10,10,10,10,5,17,0.00,1,,6
2013-6-8,79,67,55,63,56,49,100,71,50,29.91,29.79,29.68,10,8,1,25,11,33,1.03,5,Rain-Thunderstorm,183
2013-6-9,73,66,61,62,59,56,97,79,59,29.82,29.78,29.75,10,10,8,18,9,22,0.02,5,Rain-Thunderstorm,260
2013-6-10,82,70,57,64,60,54,90,72,47,29.91,29.84,29.78,10,10,10,12,5,,0.00,1,,222
2013-6-11,91,79,68,67,64,61,84,63,38,29.83,29.76,29.69,10,10,10,22,9,30,0.00,0,Rain-Thunderstorm,175
2013-6-12,93,78,68,70,65,54,76,65,49,29.98,29.76,29.67,10,10,10,18,12,29,0.00,0,,212
2013-6-13,82,70,59,61,57,52,84,65,36,30.09,30.02,29.94,10,10,7,15,6,26,0.07,1,Rain-Thunderstorm,351
2013-6-14,90,76,63,73,66,59,87,70,53,30.00,29.90,29.80,10,10,9,21,9,29,0.00,1,,140
2013-6-15,84,76,69,71,68,65,100,84,58,29.96,29.90,29.85,10,8,1,21,10,23,0.83,5,Rain-Thunderstorm,130
2013-6-16,84,73,64,72,68,64,100,81,61,29.99,29.95,29.91,10,8,2,10,3,,0.00,5,,53
2013-6-17,89,77,66,72,65,56,97,69,34,29.99,29.94,29.90,10,10,7,8,3,,0.00,1,,23
2013-6-18,81,72,66,67,61,56,90,68,47,30.08,30.01,29.96,10,9,2,13,5,,0.14,3,Rain-Thunderstorm,43
2013-6-19,86,74,64,66,64,59,93,69,43,30.01,29.96,29.90,10,10,10,14,6,24,0.01,2,,155
2013-6-20,91,79,68,72,69,65,90,70,54,29.95,29.89,29.81,10,10,10,24,11,34,0.00,1,,157
2013-6-21,93,85,77,75,72,68,82,68,52,29.87,29.85,29.81,10,10,10,22,15,31,0.00,0,Rain,179
2013-6-22,91,82,73,71,69,65,87,65,46,29.94,29.86,29.78,10,10,10,26,9,37,0.00,0,,157
2013-6-23,84,74,64,77,69,63,100,84,69,29.94,29.85,29.77,10,10,4,26,13,39,0.46,4,Rain-Thunderstorm,134
2013-6-24,84,78,71,73,70,66,100,80,60,29.98,29.84,29.70,10,9,2,22,10,33,0.27,3,Rain-Thunderstorm,166
2013-6-25,89,82,75,74,69,61,79,68,57,29.79,29.71,29.64,10,10,10,22,15,32,0.00,1,Thunderstorm,190
2013-6-26,93,83,75,73,71,67,90,69,45,29.86,29.77,29.63,10,10,10,14,9,23,0.00,0,,286
2013-6-27,75,72,68,73,69,66,97,90,78,30.04,29.93,29.87,10,10,1,32,5,46,0.94,3,Rain-Thunderstorm,343
2013-6-28,84,75,66,68,62,56,96,68,37,29.98,29.92,29.89,10,10,10,17,8,29,0.01,0,,302
2013-6-29,81,72,62,62,59,56,84,65,45,29.91,29.87,29.84,10,10,10,25,10,31,0.00,1,,328
2013-6-30,80,68,57,59,57,53,93,67,47,30.06,30.00,29.92,10,10,9,13,6,22,0.00,1,,359